Theta_e
283 283 283 283 282 282 280 281 280 281 281 276 274 272 280 279 277 276 280 279 277 279 281 280 281 283 283 283 283 284 284 281 279 279 279 279 278 277 277 278 278 278 278 278 278 278 278 278 277 278 278 277 277 277 277 277 277 277 277 277 276 275 275 275 275 275 276 276 276 276 276 276 276 276 276 276 277 276 276 276 277 276 276 276 276 276 276
280 280 279 280 279 278 278 279 280 280 279 277 277 277 279 279 278 280 280 279 279 281 281 281 282 282 282 282 282 279 278 279 280 279 279 278 277 277 278 278 278 278 278 278 278 278 278 277 277 277 276 276 277 277 277 276 277 276 275 275 275 275 275 275 275 275 275 275 275 275 275 275 275 275 275 275 275 274 274 274 274 275 274 275 275 275 275
274 275 278 279 278 277 276 277 277 277 275 276 278 278 278 277 277 279 279 278 277 282 282 281 282 279 278 278 279 280 279 278 279 278 278 278 278 278 278 278 278 278 277 277 277 276 276 276 276 276 277 276 276 276 276 275 275 275 274 274 274 274 274 274 274 274 274 274 274 274 274 274 273 273 273 273 272 272 272 272 272 273 273 273 274 274 274
268 271 275 276 273 274 272 273 275 275 274 274 276 275 277 276 275 276 275 272 276 281 281 279 279 277 278 279 278 278 278 278 278 278 278 279 279 279 279 278 277 276 276 276 276 276 275 275 276 276 276 276 275 275 275 275 274 274 274 274 274 273 273 273 273 273 273 273 272 272 272 271 271 271 270 270 270 270 270 270 271 272 271 272 272 272 272
266 271 272 273 270 269 270 273 276 276 276 277 277 277 277 278 278 271 271 274 279 280 281 279 278 278 278 277 277 277 277 278 279 279 279 279 278 278 276 276 276 277 277 276 276 275 275 276 276 276 276 275 275 274 274 274 274 273 273 273 273 272 272 272 272 272 271 270 270 269 269 269 269 268 268 268 267 268 268 269 269 269 269 269 269 269 270
266 267 270 270 267 263 268 275 277 277 275 276 275 275 277 278 279 276 279 278 279 276 277 278 279 278 277 278 278 278 281 279 277 276 277 277 277 275 275 277 277 277 276 275 275 276 276 276 275 275 274 274 274 273 273 273 273 272 272 272 271 271 270 270 270 270 269 268 267 267 267 267 266 266 266 266 266 267 267 267 266 266 266 266 266 267 267
268 267 268 267 266 267 272 276 277 278 278 278 277 277 278 278 278 278 278 277 276 278 280 280 280 280 276 274 276 275 274 276 276 276 275 275 274 276 277 276 276 276 276 275 275 275 275 275 274 273 273 273 272 272 272 271 271 270 269 269 268 269 268 268 268 267 267 266 266 265 265 265 264 264 264 264 265 265 265 264 264 264 264 264 264 265 265
271 267 267 260 264 272 276 276 276 277 277 277 276 274 276 277 277 278 277 279 279 278 278 278 275 274 274 274 275 273 274 275 276 274 275 275 275 276 277 277 277 276 275 276 275 275 275 273 273 272 272 272 271 270 270 270 268 268 268 266 267 267 266 266 266 267 265 264 264 263 263 263 263 263 263 263 263 263 263 263 263 263 263 263 263 263 263
268 269 266 269 270 273 274 274 275 275 274 273 273 268 273 278 276 276 276 278 277 276 275 275 273 273 274 274 275 275 275 276 275 276 276 276 276 277 277 277 277 277 276 276 275 274 273 272 271 271 271 270 268 268 267 266 266 266 266 265 266 266 265 265 264 264 264 263 262 262 262 261 261 261 262 262 262 262 261 261 261 261 261 261 262 262 262
271 266 267 265 262 264 270 273 276 276 276 276 277 275 269 272 267 272 276 275 272 270 271 272 272 272 273 270 274 276 276 276 276 276 277 276 277 277 277 275 275 275 275 275 274 272 271 270 270 270 268 267 267 266 265 266 264 265 264 264 265 263 263 262 263 263 262 261 261 261 260 260 260 261 261 261 261 261 260 260 260 260 260 260 261 261 261
270 267 267 266 263 265 270 269 270 273 273 275 270 269 266 270 269 271 273 270 269 271 272 271 272 271 267 269 275 277 276 276 275 276 276 276 276 276 276 276 275 275 274 274 272 271 270 269 269 268 266 265 265 265 265 265 264 263 263 264 263 262 263 263 263 262 261 261 261 260 260 260 260 260 260 260 260 261 260 260 260 260 260 260 260 260 260
271 269 267 266 267 266 267 264 269 273 273 274 272 261 261 268 273 272 273 274 272 272 273 273 273 272 266 271 275 277 277 277 277 276 277 275 274 275 275 275 276 275 273 271 270 269 268 268 267 266 264 264 263 264 264 264 263 261 263 262 263 262 262 262 262 260 260 260 260 259 259 259 259 259 260 259 259 259 259 259 259 259 259 259 258 259 260
273 273 269 268 267 273 271 273 275 274 275 272 262 264 267 271 273 274 275 275 274 274 272 273 270 274 277 278 278 275 277 275 275 274 274 275 276 276 275 275 276 273 272 272 270 268 268 267 265 264 263 262 262 263 263 262 260 262 262 262 262 261 262 260 260 259 259 259 259 259 259 259 259 259 259 259 259 258 258 258 258 258 258 258 258 259 259
270 271 270 269 272 273 272 275 277 275 272 263 266 273 273 274 274 274 275 275 275 274 274 274 276 277 278 278 275 274 274 276 277 276 274 274 274 274 274 275 273 271 270 268 267 266 266 266 264 263 262 261 261 261 261 260 260 262 262 261 261 259 259 258 259 258 258 258 258 258 258 258 258 258 259 258 258 258 258 258 257 257 258 258 258 258 259
270 269 267 267 264 273 277 275 275 275 267 270 275 273 274 274 275 274 273 275 276 275 275 276 277 277 277 275 275 275 274 274 275 275 274 274 274 274 272 271 270 270 268 267 266 265 265 264 264 263 259 259 259 260 259 260 261 261 261 260 260 259 258 258 257 257 257 257 257 258 258 258 257 257 258 257 257 258 257 257 257 257 257 257 257 257 258
264 268 266 266 274 274 276 278 272 272 277 276 275 275 276 276 274 274 275 275 276 275 276 276 276 276 276 274 273 274 274 274 274 274 274 275 274 273 273 272 270 268 268 266 265 264 264 262 262 262 259 258 258 258 259 261 260 260 258 258 257 256 256 256 256 256 256 256 257 257 257 257 257 257 257 257 257 257 257 257 256 256 257 257 257 257 257
267 266 271 273 275 275 278 280 279 278 280 281 276 277 277 277 276 275 275 276 276 275 275 276 276 276 276 276 276 275 275 275 274 274 274 274 273 273 271 270 268 267 267 265 264 263 263 261 260 259 258 257 257 256 259 259 259 258 257 256 255 255 255 255 255 256 256 256 256 256 256 256 256 257 257 256 256 257 257 256 256 256 256 256 256 256 257
272 272 272 274 274 273 276 279 279 278 278 278 276 276 276 276 277 277 277 277 277 276 276 275 275 275 276 276 275 274 275 275 275 274 273 272 271 270 268 266 266 265 263 262 261 261 261 260 260 258 258 257 255 257 259 259 258 257 255 254 254 255 254 255 255 255 255 256 256 256 256 257 257 257 256 256 256 256 256 256 256 256 256 256 256 257 257
269 264 273 273 275 274 275 278 279 278 276 276 276 276 277 278 278 276 277 278 278 278 276 276 276 277 277 276 276 275 275 274 274 274 273 272 271 269 268 267 264 262 261 261 260 259 259 259 258 258 256 257 257 257 256 258 258 255 253 253 255 255 255 255 255 255 255 256 256 257 256 257 257 257 257 256 256 256 256 256 256 256 257 257 258 258 259
270 269 272 273 276 275 276 278 278 278 279 278 277 277 277 278 278 278 278 277 277 276 274 276 276 277 277 276 276 275 275 275 275 273 272 271 269 268 268 265 263 262 261 261 260 259 259 259 259 257 256 256 256 256 256 257 254 253 253 253 254 254 254 254 255 255 255 257 257 256 256 256 256 256 256 256 255 256 256 257 257 257 258 259 259 260 261
272 274 275 274 274 275 276 276 276 277 278 278 278 277 277 277 276 277 276 276 278 277 277 277 276 275 276 276 276 276 275 274 273 273 272 271 270 267 265 263 262 263 261 260 259 258 258 259 257 256 255 255 255 256 257 255 253 252 253 254 254 254 254 254 254 256 256 256 255 256 256 256 256 256 256 256 257 258 260 260 260 260 260 262 264 265 265
266 269 274 274 268 270 276 278 278 278 277 277 277 277 276 276 276 277 276 276 276 277 277 277 276 275 276 276 275 275 275 275 274 273 271 269 267 265 264 262 261 260 259 258 258 257 258 258 256 255 254 254 254 257 254 253 253 252 253 253 252 253 254 254 254 255 255 255 255 256 255 255 256 256 260 265 264 262 262 265 269 270 270 266 267 267 267
270 275 276 277 278 277 278 279 278 277 277 276 276 276 277 277 277 277 277 276 276 274 275 276 276 276 276 277 276 274 274 274 274 273 271 268 265 264 262 261 259 259 258 258 256 256 257 256 255 255 255 254 254 254 255 255 254 253 252 253 253 254 254 254 255 256 255 255 255 255 256 256 256 256 256 258 264 266 267 267 269 270 271 271 272 272 269
277 277 278 278 277 276 278 279 278 278 277 276 276 277 277 278 278 277 276 276 276 277 276 274 274 276 276 277 275 275 275 274 271 269 269 268 267 264 261 263 260 258 258 257 257 256 257 256 254 254 254 254 253 254 253 253 253 253 252 252 253 254 254 254 256 256 255 256 256 255 256 256 255 256 255 255 257 264 267 267 268 269 270 270 271 271 271
277 280 279 278 277 277 278 279 278 278 278 276 276 276 277 276 276 276 275 276 276 276 277 277 275 273 274 275 275 275 275 272 269 268 265 264 264 262 261 259 258 258 258 258 257 256 255 254 253 253 253 254 253 253 254 253 253 252 252 252 253 253 254 255 255 256 256 255 255 255 255 255 255 255 256 255 255 256 259 266 268 268 268 269 269 270 270
280 280 280 277 274 277 277 276 276 277 277 275 275 275 275 276 276 275 275 276 276 275 275 276 276 274 273 274 273 272 268 265 264 264 263 263 262 260 259 259 258 257 257 256 256 254 253 252 253 252 253 254 253 253 253 253 253 252 252 252 252 253 254 254 255 255 255 255 255 255 256 256 255 256 256 257 257 257 257 257 259 263 267 268 268 269 269
280 280 278 274 275 277 278 276 278 280 279 276 275 276 277 276 275 275 274 272 271 272 273 274 274 271 268 266 266 266 268 264 264 264 264 263 261 260 258 257 257 257 256 255 254 254 254 253 253 253 254 254 253 253 252 251 250 250 251 252 252 255 256 256 254 255 255 256 256 255 256 255 256 256 257 257 258 257 257 257 257 257 258 260 264 268 266
279 279 279 276 276 277 278 279 279 279 279 277 275 275 275 272 270 268 270 271 270 266 266 264 267 265 267 263 265 264 264 264 265 263 262 261 260 258 257 256 255 255 255 254 253 253 254 254 252 253 254 254 254 252 251 250 250 250 252 253 253 254 254 255 255 255 255 255 255 255 255 256 257 257 257 257 257 257 257 257 257 257 258 259 259 264 267
278 278 278 279 280 281 280 275 273 274 275 273 272 271 269 269 268 268 269 270 270 266 266 263 262 263 265 263 265 266 265 264 263 262 261 259 257 257 256 254 254 253 254 253 253 252 252 251 251 252 253 253 253 250 250 249 250 250 253 252 253 253 254 254 254 255 255 255 255 256 258 258 257 256 257 257 257 257 257 257 257 257 257 258 258 259 262
279 276 274 276 277 277 275 275 276 275 273 273 271 268 267 270 269 269 269 269 265 267 267 262 261 262 262 263 264 266 265 264 263 260 258 257 256 255 255 255 253 253 252 253 253 252 252 251 252 252 254 253 254 250 249 249 251 250 251 253 252 253 253 254 255 255 255 256 256 258 257 256 256 256 256 256 256 257 256 256 257 257 256 257 259 257 257
274 274 274 275 275 274 274 276 276 276 275 273 270 269 265 265 269 270 270 268 265 266 263 262 261 261 261 264 263 262 260 258 257 256 255 255 255 254 253 254 254 254 255 255 253 251 250 250 251 253 254 253 252 251 250 249 250 249 252 253 251 255 257 257 258 257 255 255 255 255 255 255 255 256 256 256 256 256 256 256 255 256 256 256 256 257 257
274 270 270 272 273 272 272 273 274 274 274 270 265 266 268 267 267 269 270 267 266 265 262 260 261 263 263 261 259 258 257 255 255 254 254 253 253 254 254 254 254 254 253 254 253 252 251 251 252 253 253 252 252 252 252 249 249 249 250 253 253 252 254 257 256 256 256 255 255 254 255 255 255 255 255 255 255 255 255 255 255 255 256 256 256 256 257
275 273 270 270 265 265 269 271 271 272 272 269 269 271 271 269 269 268 268 266 262 263 263 263 262 259 257 257 256 255 254 253 252 253 252 253 253 253 253 253 253 253 253 253 253 252 252 252 253 254 253 253 252 251 252 252 252 250 249 249 249 252 254 256 256 255 254 254 253 253 254 254 255 254 254 255 256 256 255 255 255 255 255 256 256 256 258
277 277 278 278 276 274 272 272 270 270 271 270 269 267 265 265 266 265 261 260 262 261 262 260 256 254 254 254 254 253 253 253 253 254 254 254 254 253 252 253 251 251 253 253 253 253 253 254 253 254 254 253 253 253 253 252 252 249 249 249 249 250 250 251 253 252 251 252 253 255 254 254 253 254 254 255 255 254 255 255 255 255 255 255 255 256 259
278 279 278 278 277 276 276 276 275 272 271 271 267 263 264 262 260 260 257 259 259 258 255 254 254 254 254 254 253 252 253 255 254 253 253 252 253 253 253 250 250 250 250 251 252 253 253 254 252 252 252 252 252 252 252 252 248 248 247 248 251 250 250 251 251 250 251 251 252 252 252 253 253 255 255 255 253 254 254 254 254 255 255 255 255 256 256
274 275 274 270 264 262 267 270 271 271 271 270 269 265 260 257 255 256 256 255 255 256 256 255 254 253 253 252 252 251 251 251 250 250 251 251 251 252 252 250 250 250 250 251 253 253 253 252 254 255 253 252 252 251 251 248 248 248 248 249 250 251 251 251 251 251 251 251 251 252 251 254 255 254 254 253 253 252 252 253 253 254 254 254 255 255 255
265 273 273 268 259 255 255 254 253 258 261 260 258 257 255 254 254 252 253 254 255 254 254 253 253 252 252 252 251 250 251 251 252 252 251 251 251 249 249 249 250 250 251 250 251 247 246 246 253 255 255 250 252 247 251 255 250 248 248 248 247 248 249 248 249 249 250 251 252 251 253 253 250 251 252 251 251 252 252 252 253 254 254 254 254 254 254
257 258 259 258 254 253 250 249 249 252 253 251 250 252 253 252 252 252 253 252 252 253 253 252 252 250 251 251 251 251 250 250 248 247 246 246 246 246 246 247 250 251 251 251 247 245 244 248 255 253 249 248 247 247 251 255 255 250 246 246 248 248 249 249 249 251 251 250 252 251 250 250 250 250 250 250 250 251 252 253 253 253 253 253 253 253 253
255 253 252 251 251 251 250 250 248 249 252 252 250 250 250 252 252 252 252 251 251 252 251 250 250 251 250 249 247 247 246 246 245 245 245 245 245 245 248 250 251 252 252 250 247 249 250 252 251 251 249 249 247 250 251 254 255 248 246 247 247 247 249 249 249 251 251 252 250 250 249 250 250 249 250 250 250 252 252 253 253 253 252 252 252 252 252
255 253 252 251 251 251 252 250 249 248 248 250 252 251 251 252 252 252 251 251 252 252 251 251 249 249 247 246 246 246 246 245 245 245 245 244 244 244 246 247 249 250 251 252 252 252 253 254 253 250 250 247 247 246 249 253 254 250 247 246 247 248 248 250 250 250 250 249 250 252 249 249 249 250 250 250 250 250 250 251 251 251 251 251 251 251 252
253 252 251 252 251 251 251 251 250 249 248 249 250 251 252 252 252 252 250 250 248 248 249 247 246 247 246 245 244 245 245 245 245 244 243 243 243 245 246 248 249 248 249 249 249 250 252 253 251 249 249 247 245 251 248 253 250 246 246 247 247 248 249 250 251 251 250 250 250 249 248 248 248 248 249 249 249 249 249 250 250 250 249 250 250 251 251
252 252 252 252 251 251 250 250 250 250 248 248 249 249 249 250 251 250 248 247 245 244 245 245 248 247 244 244 244 245 243 243 243 243 243 246 247 246 247 249 250 251 253 253 253 252 250 248 250 253 248 246 247 253 255 253 248 246 247 248 249 250 250 251 251 250 250 249 248 247 247 247 246 246 248 248 247 248 249 249 250 250 249 250 250 250 250
251 251 251 251 250 250 249 250 251 250 249 250 247 248 249 249 248 247 247 246 245 244 244 243 246 248 248 245 244 243 244 244 244 243 243 244 245 247 248 249 247 248 252 252 249 247 247 246 246 246 252 252 250 254 255 252 247 247 247 248 250 251 251 251 250 250 249 247 247 246 245 245 244 245 247 246 247 247 248 248 248 249 250 249 249 250 250
250 251 251 250 250 250 250 250 250 250 250 250 250 248 247 246 246 247 246 246 245 247 247 243 243 243 243 243 242 243 245 244 244 244 242 245 245 246 246 247 248 250 252 251 250 249 246 247 245 249 254 255 255 255 253 250 252 249 249 249 250 251 251 250 250 249 248 248 248 246 245 247 246 245 244 246 247 247 248 248 248 248 249 249 249 249 250
251 251 250 250 250 250 251 251 250 251 251 250 248 246 245 244 244 244 245 245 245 245 247 247 246 246 243 243 244 245 246 245 245 243 243 246 245 249 245 250 249 249 251 253 251 250 250 248 251 254 254 255 255 255 253 252 253 253 253 250 250 250 250 250 250 249 249 248 247 247 247 246 245 245 245 245 249 248 248 248 248 248 249 249 249 249 249
249 249 249 250 249 249 250 250 250 249 249 248 246 246 245 243 243 242 243 243 243 244 247 247 247 247 247 245 243 243 241 244 244 245 247 248 248 248 245 250 248 251 253 254 250 249 249 253 254 255 255 255 255 255 252 253 253 253 252 250 250 250 250 249 249 249 248 248 248 246 246 245 244 244 244 244 245 247 248 250 250 248 247 248 248 249 249
249 249 248 247 247 246 246 247 248 247 247 248 248 246 245 243 242 242 242 242 242 242 241 244 247 247 248 246 245 243 244 244 246 246 246 247 248 250 251 252 253 254 254 252 251 250 249 250 254 255 255 255 255 253 252 252 252 252 252 250 250 250 249 249 249 248 247 247 248 249 250 248 246 245 246 247 246 247 247 247 247 248 248 249 249 250 249
250 248 247 247 246 245 246 246 246 246 246 248 247 246 246 243 242 242 241 241 242 241 241 241 243 243 243 243 244 245 247 245 245 248 244 246 247 247 249 248 252 254 255 255 255 255 255 255 255 255 255 255 254 253 252 252 252 252 252 251 250 250 248 248 248 247 248 247 248 246 246 245 245 244 245 245 246 246 246 247 247 248 248 247 247 248 248
248 246 245 245 245 245 246 246 246 246 245 243 244 244 244 242 242 242 243 241 240 240 242 241 241 242 242 245 244 245 245 247 248 248 246 246 247 249 252 254 255 256 255 253 252 252 254 255 255 255 255 254 252 252 250 250 250 251 251 251 251 250 250 249 249 248 248 247 247 247 247 247 246 245 246 246 246 246 247 247 247 245 247 247 248 248 248
245 246 246 245 245 245 246 246 245 245 244 243 243 242 243 244 246 246 245 245 243 247 244 242 242 243 244 243 244 246 245 246 249 250 250 251 251 252 254 254 255 256 255 254 252 253 253 254 255 254 254 253 253 253 252 252 251 252 251 252 252 251 251 250 251 251 249 249 248 247 247 247 247 247 248 246 247 247 247 247 246 248 250 250 248 248 247
247 247 246 246 246 245 245 245 246 244 243 245 244 244 246 245 245 248 247 247 246 248 246 245 246 245 246 245 246 244 246 246 248 251 251 252 253 255 256 256 256 256 256 255 255 254 254 254 253 254 254 254 253 253 252 252 251 252 252 251 251 251 250 251 249 249 248 248 247 246 247 246 246 246 245 246 247 247 247 247 247 247 246 246 246 246 246
247 247 247 246 245 245 244 243 243 244 243 245 244 245 246 245 246 246 246 252 248 246 246 246 248 246 245 247 249 247 245 247 249 250 254 253 254 254 255 256 256 256 256 255 255 255 255 254 254 254 253 254 253 252 252 252 252 251 251 251 251 251 251 250 250 248 248 248 248 247 247 247 246 246 246 246 246 246 247 247 246 246 246 246 246 246 246
Wind_Speed
2 2 4 2 1 2 3 6 7 10 6 7 6 5 10 7 9 13 8 4 6 7 9 3 9 10 9 8 9 9 8 4 3 4 7 9 8 6 7 8 8 8 7 7 6 6 6 5 5 6 5 3 2 3 3 2 1 1 1 0 1 2 4 4 4 4 5 4 4 5 6 7 8 9 9 9 9 9 9 9 9 10 11 12 13 13 12
2 2 3 3 4 2 3 8 11 10 7 5 6 11 8 10 9 10 10 9 13 10 8 5 8 7 7 7 5 0 2 5 7 7 8 9 8 8 9 8 8 7 7 6 6 5 5 4 2 2 2 1 1 2 3 3 4 3 3 4 4 4 4 4 4 4 5 4 5 5 7 8 8 8 8 9 10 10 11 11 11 11 12 12 11 12 13
4 3 1 2 2 3 6 8 8 6 1 3 10 7 5 5 6 12 12 11 14 13 7 5 5 1 1 1 4 7 6 5 7 8 7 8 8 8 8 7 7 6 5 4 4 4 3 1 2 1 1 2 3 4 3 4 4 3 3 4 4 4 5 4 5 6 6 7 7 9 8 8 7 8 10 9 9 10 11 11 12 12 12 13 12 11 12
3 1 2 3 2 3 4 9 15 5 4 9 10 8 7 6 11 8 2 5 12 14 7 2 2 3 5 7 7 5 5 5 6 8 8 8 8 8 8 7 5 4 5 5 5 5 4 3 4 4 4 4 4 3 3 3 3 3 4 4 5 4 4 5 5 7 7 7 8 8 8 8 9 9 9 10 10 11 11 12 12 11 12 12 13 13 12
4 2 1 1 2 5 10 18 16 10 13 12 8 6 5 11 7 5 8 13 12 9 6 6 6 6 8 5 5 5 4 6 8 9 9 8 7 7 6 5 5 5 6 6 6 5 5 6 5 4 5 4 4 3 3 1 2 4 4 4 4 4 5 6 6 5 6 6 6 6 7 7 8 9 10 11 11 11 12 11 11 12 13 14 14 13 13
3 1 2 1 2 6 15 1 5 8 9 11 13 12 13 8 8 8 9 9 6 5 5 8 10 8 8 10 8 5 9 9 6 4 6 7 7 6 6 8 8 7 5 4 5 7 7 5 5 4 3 5 4 3 2 2 4 4 4 5 4 4 3 3 4 5 6 5 6 6 6 7 8 9 9 10 10 9 10 11 11 12 12 13 13 12 12
3 2 3 1 9 17 2 1 1 4 7 7 11 10 8 8 9 8 7 6 5 8 9 10 11 8 1 0 6 4 4 5 7 8 7 7 6 7 8 8 7 8 8 6 6 5 5 6 5 5 4 3 3 3 3 4 3 3 2 3 3 3 3 4 5 4 6 5 6 7 7 8 8 9 9 10 10 9 9 10 11 12 12 13 12 11 11
3 3 5 3 12 5 5 5 1 1 1 0 0 5 8 10 10 10 10 12 9 8 9 5 0 2 2 1 1 4 5 6 6 5 6 7 7 8 9 10 9 9 9 11 10 8 5 6 4 4 4 3 3 2 2 3 2 2 2 2 3 2 3 4 4 5 4 5 6 6 8 8 8 10 9 9 10 10 10 10 9 9 11 9 11 12 11
7 4 8 13 5 11 11 9 3 5 6 5 6 6 10 11 5 8 7 9 9 7 4 1 3 2 2 1 3 4 7 6 5 7 8 7 9 10 9 9 10 9 9 8 8 7 6 5 5 4 3 3 3 2 2 2 2 1 1 1 1 2 2 3 3 4 5 5 6 6 7 8 9 9 10 11 9 8 10 10 10 10 9 10 9 11 12
6 5 5 4 2 8 14 6 1 1 2 4 6 5 8 5 2 5 9 8 6 2 0 3 3 2 2 4 6 7 8 7 7 6 6 5 6 7 7 4 4 5 5 6 6 8 8 6 4 4 3 3 3 2 1 1 1 1 1 0 1 2 2 2 3 4 4 4 6 7 7 8 9 9 9 9 9 8 9 11 10 9 9 10 9 9 12
4 3 8 9 7 10 6 3 2 2 1 7 4 2 8 6 5 7 6 5 4 6 6 5 4 3 4 7 8 8 5 5 6 7 7 7 7 7 9 11 9 8 7 8 8 7 7 7 4 3 3 3 3 1 0 0 0 0 0 0 1 1 3 3 3 4 4 4 5 7 8 9 8 10 9 9 9 8 9 8 10 8 10 10 10 9 10
8 7 7 11 5 6 3 3 3 3 3 3 5 2 8 5 7 6 6 5 6 7 6 7 7 8 7 8 9 6 9 8 8 8 7 5 5 6 4 3 7 8 8 9 6 7 6 6 4 4 3 3 1 2 1 1 0 1 1 0 1 2 3 4 4 3 4 5 6 7 9 9 8 9 8 9 9 9 9 8 9 8 9 9 11 11 11
12 13 8 3 6 5 3 4 4 2 2 3 4 11 8 2 6 8 7 7 8 7 7 7 8 10 10 10 8 5 8 5 4 4 3 6 8 10 8 8 7 8 7 8 9 7 6 6 5 3 3 3 2 2 2 2 2 2 1 0 2 3 3 4 4 4 4 5 8 8 7 9 9 8 8 9 9 9 9 8 8 10 11 11 11 11 10
12 9 9 10 6 6 4 3 8 5 4 3 12 6 4 10 8 7 10 9 8 8 11 10 10 10 11 8 1 4 5 10 9 7 5 3 2 1 3 7 8 7 6 5 6 5 4 6 5 4 3 3 2 3 2 2 3 2 1 2 2 3 4 4 4 5 6 6 6 7 7 8 9 10 8 8 8 9 8 8 10 11 11 10 10 11 10
1 2 6 3 9 6 13 8 2 3 5 8 4 2 3 4 7 9 8 9 7 9 9 11 12 10 7 6 7 7 7 7 8 7 6 7 9 9 7 5 5 9 8 8 7 7 5 5 4 3 3 2 2 1 2 3 2 1 2 2 3 3 4 5 5 6 6 7 8 6 7 8 9 11 9 8 8 8 9 10 10 11 11 10 10 11 10
6 8 9 10 10 2 8 13 10 5 11 7 5 4 5 4 5 5 6 8 9 9 11 11 11 10 9 6 5 5 5 7 6 5 7 7 7 7 7 9 10 7 8 6 6 5 5 4 3 3 3 2 2 2 4 2 1 1 1 2 2 4 4 5 6 6 6 7 7 7 8 8 8 10 10 8 8 8 8 8 9 10 10 9 10 10 11
9 9 8 3 3 6 9 12 9 8 13 11 6 6 6 6 6 5 5 8 8 9 11 11 11 11 10 11 10 9 10 9 9 9 11 11 12 12 13 11 9 7 10 9 7 5 5 4 3 3 3 3 2 3 2 2 1 2 2 2 3 4 5 5 6 6 6 6 7 7 7 7 8 9 9 7 9 8 7 8 9 10 10 9 9 10 10
2 3 6 2 0 2 7 8 8 9 9 7 5 7 6 5 7 7 8 8 8 9 9 9 7 9 10 10 9 8 8 8 9 8 6 6 5 5 5 5 8 7 6 6 6 6 4 4 4 4 3 4 3 3 1 1 2 2 2 2 4 5 5 5 6 6 7 7 6 7 7 6 7 8 8 8 8 9 8 9 9 10 11 10 10 10 10
4 5 2 5 6 3 5 11 11 8 5 5 6 6 8 8 7 6 6 9 9 10 10 12 12 13 12 11 10 10 9 9 9 9 10 10 12 13 13 11 10 8 7 7 7 6 6 5 5 4 3 3 4 3 3 3 2 2 2 3 4 5 6 6 5 5 6 6 6 6 5 6 7 7 7 6 7 9 9 9 9 10 11 11 11 10 11
5 7 4 7 6 4 6 10 11 12 12 9 6 8 7 8 8 8 10 8 8 6 6 10 11 13 11 10 11 10 10 10 10 10 10 10 8 7 7 9 9 7 8 9 7 7 7 6 5 4 3 4 3 3 3 3 3 2 3 4 5 5 6 6 5 5 6 7 7 7 7 7 8 8 7 5 6 9 10 10 11 11 11 11 11 10 10
3 3 7 6 1 5 9 10 6 6 7 8 8 7 8 9 9 10 7 6 10 8 11 10 10 10 12 11 12 12 11 10 8 9 11 11 12 11 10 10 10 11 8 7 7 7 6 5 5 4 4 3 3 3 3 3 2 2 4 4 4 5 6 5 5 4 5 6 6 7 8 7 7 8 9 8 8 10 11 9 10 10 9 10 11 10 10
2 8 11 4 2 6 11 14 14 12 11 8 9 8 7 8 10 10 10 10 9 10 10 9 9 11 12 12 10 11 11 11 12 10 9 8 8 8 7 7 7 6 7 7 7 6 4 4 4 4 3 3 3 3 3 3 3 3 4 4 4 5 5 5 5 5 5 5 5 6 7 8 9 10 11 17 12 10 11 18 24 25 22 15 14 13 12
10 11 9 10 12 11 12 10 7 6 6 7 10 11 12 12 12 11 11 11 10 7 11 10 10 12 13 14 11 10 9 10 11 11 11 10 8 9 8 9 6 7 6 5 5 4 4 4 4 3 3 3 3 4 4 4 4 4 4 3 4 5 4 4 5 5 6 6 6 6 6 7 7 8 12 15 18 18 18 20 21 24 24 26 27 25 18
9 8 11 9 9 12 11 10 9 9 7 7 9 11 12 12 12 11 9 10 11 11 9 9 10 13 13 10 6 10 11 8 5 7 7 8 9 8 8 9 8 7 6 5 5 5 3 4 3 3 3 4 4 4 4 4 4 4 4 4 5 5 4 4 5 6 5 6 6 6 7 6 6 7 8 11 17 23 21 17 21 22 23 23 23 22 24
14 13 10 9 8 8 10 10 8 8 8 7 8 10 12 11 10 8 9 10 9 12 11 11 7 6 7 10 11 11 12 10 8 7 7 7 7 9 8 6 7 7 6 5 3 3 3 3 2 3 4 4 4 4 4 4 4 4 4 4 5 5 4 4 5 7 6 6 6 6 7 7 7 7 7 9 10 14 22 29 28 20 17 18 20 21 25
13 12 12 3 4 8 8 2 7 11 11 7 6 6 7 8 9 7 9 11 11 9 10 10 10 9 11 12 11 9 5 5 7 7 7 7 6 5 7 7 6 4 4 4 3 4 3 3 3 3 5 5 4 4 4 4 4 4 4 5 4 4 4 4 6 6 5 5 6 6 6 6 7 7 8 8 9 10 12 14 20 27 30 26 22 22 23
11 12 9 4 6 11 10 11 14 15 12 7 9 10 9 8 10 9 7 6 7 6 7 8 7 3 1 4 3 2 6 5 4 6 5 6 6 5 4 4 4 4 4 4 3 3 3 3 3 4 6 5 4 4 4 4 4 4 4 5 4 5 7 6 4 5 6 5 6 6 6 6 6 7 8 8 9 9 9 10 12 13 13 19 25 28 24
11 11 9 12 15 16 15 14 13 14 12 7 7 9 10 6 3 5 7 8 6 6 4 2 4 5 6 3 5 4 5 8 8 5 5 5 4 4 4 5 4 4 3 3 3 2 2 3 3 4 8 5 3 4 4 4 4 4 5 4 4 4 3 5 5 5 5 5 5 6 6 6 6 7 7 8 9 8 9 9 9 10 11 12 13 19 26
13 12 8 12 16 15 12 2 2 6 9 6 5 5 3 4 7 7 8 8 7 2 4 3 0 1 4 4 4 6 6 6 6 8 6 5 5 4 5 5 4 3 2 2 2 3 3 3 4 5 8 4 3 4 4 4 4 4 4 3 4 4 3 4 4 5 6 6 5 5 6 6 7 7 7 8 8 7 8 8 9 9 10 10 12 14 16
15 2 4 8 11 9 7 9 11 8 8 7 6 6 6 6 6 8 9 7 6 9 7 3 3 2 2 4 4 5 7 8 7 5 5 5 4 4 5 5 4 1 0 3 5 4 5 4 5 5 7 3 3 4 4 4 4 4 4 5 4 4 4 4 5 5 5 5 5 7 5 5 5 6 7 7 7 7 8 8 9 9 10 10 10 10 12
4 6 10 10 11 9 11 14 12 11 9 7 7 6 5 5 8 8 9 7 5 7 4 5 5 4 4 6 5 4 4 5 5 5 5 4 4 4 4 4 4 4 6 6 3 3 4 4 4 6 6 4 4 4 4 4 4 3 3 3 3 6 8 10 8 5 4 4 5 4 5 4 4 6 7 7 7 7 7 7 8 8 9 9 9 9 10
6 7 10 10 10 10 10 10 11 11 11 6 4 7 10 10 11 14 11 7 9 7 5 5 7 9 7 5 6 6 6 6 6 5 4 3 2 2 3 3 3 3 4 5 4 3 4 4 6 7 4 4 4 4 4 4 4 4 4 4 3 3 5 8 6 6 5 6 5 5 6 5 5 5 5 6 6 7 7 8 9 8 8 9 9 9 10
9 10 7 9 5 5 8 9 9 12 11 9 12 12 10 9 8 8 8 5 5 6 8 9 6 4 5 6 6 6 6 5 4 4 2 2 2 2 2 2 4 4 5 5 5 4 4 6 7 5 4 4 4 4 4 4 4 5 5 4 3 4 4 5 6 5 5 5 5 4 4 5 5 6 6 7 6 7 7 7 8 8 8 8 8 9 9
15 16 17 15 12 13 14 15 11 12 11 9 9 7 6 7 8 7 5 5 5 6 7 4 5 6 6 7 6 6 7 5 2 3 5 4 3 2 2 3 3 4 6 5 5 4 5 6 6 6 5 4 4 4 4 4 4 4 4 4 5 4 4 4 5 4 4 5 5 5 5 6 5 5 7 7 6 6 7 7 8 8 8 8 8 8 12
12 13 12 12 10 11 12 12 11 11 12 12 9 7 8 6 5 5 3 5 5 4 4 7 6 7 7 7 6 6 6 6 4 3 3 3 2 2 2 1 2 3 5 8 6 7 7 7 6 6 6 5 5 5 4 5 4 4 4 5 5 4 4 5 3 4 4 4 3 4 4 4 4 5 6 6 5 7 6 7 6 7 7 8 9 9 10
8 10 10 9 8 6 8 10 9 9 10 11 9 7 6 5 4 5 5 4 5 6 6 7 8 7 7 7 6 6 6 5 4 3 2 3 2 1 1 2 3 5 6 10 8 7 8 7 7 8 5 5 5 5 4 3 4 4 4 4 4 4 5 4 4 3 4 3 3 3 3 5 5 6 6 5 5 5 6 6 6 6 6 7 7 8 9
6 10 10 7 3 3 3 1 0 1 3 2 3 5 5 4 5 4 5 5 4 6 7 7 7 7 6 5 4 4 4 4 4 3 3 2 2 2 2 2 3 5 4 7 6 2 3 4 6 8 6 4 4 4 5 6 4 4 4 5 4 3 3 4 3 3 3 2 3 3 5 5 3 5 6 4 5 5 5 6 7 7 6 6 7 7 8
1 1 3 4 4 4 3 1 0 4 8 9 6 4 7 7 6 6 6 5 5 5 5 5 5 5 5 4 4 4 4 3 3 3 3 3 2 2 3 3 6 4 7 8 2 2 1 2 4 3 3 5 5 5 5 7 7 4 4 4 3 3 4 3 3 4 3 3 3 2 3 3 4 5 5 5 4 5 6 6 6 6 7 7 6 6 7
2 4 5 5 5 6 6 4 4 3 3 10 7 5 4 6 6 7 7 5 4 4 6 6 5 6 4 5 4 2 2 2 2 2 2 3 2 3 7 6 8 8 8 2 1 4 5 4 6 5 5 7 5 4 5 6 8 4 4 3 3 3 3 3 2 4 3 3 2 3 2 3 4 4 4 4 5 5 6 6 6 7 6 7 7 7 7
5 5 6 6 6 4 5 7 5 6 4 4 9 9 6 7 6 8 8 7 3 4 4 4 5 5 3 2 2 3 2 2 2 2 3 2 1 3 6 8 11 11 8 11 9 8 10 12 8 7 7 5 5 6 5 6 6 4 3 4 4 4 3 4 2 2 3 2 3 4 4 4 4 4 4 5 5 5 5 6 6 6 6 6 6 6 7
6 7 5 5 6 4 5 7 7 7 5 6 6 6 4 6 7 8 6 5 2 3 4 2 3 2 2 3 3 4 2 1 1 2 1 0 2 4 6 10 2 2 4 5 5 7 8 8 6 7 6 6 4 5 6 7 4 4 4 4 4 4 3 3 3 2 3 3 4 3 4 4 4 4 5 4 5 4 4 5 5 6 6 6 6 6 6
6 6 7 7 6 6 6 6 7 9 6 5 5 4 5 3 5 6 5 4 4 3 3 2 3 3 3 2 1 1 3 4 3 3 3 5 6 5 8 10 3 6 5 8 7 7 5 5 6 6 5 5 5 6 6 6 4 4 4 4 4 4 3 2 3 3 3 3 3 4 5 4 4 4 4 5 4 5 5 5 6 6 6 5 6 6 7
8 9 9 8 7 7 7 7 7 8 7 5 4 4 4 5 6 7 5 4 4 4 3 1 1 0 1 1 1 2 5 4 4 5 4 6 8 8 9 9 4 7 8 7 4 5 5 5 4 4 5 5 5 7 7 5 3 4 4 4 4 3 4 3 3 3 3 4 4 4 4 5 4 3 4 5 5 5 5 5 6 7 6 6 6 6 6
6 7 7 9 8 7 7 8 7 8 8 5 3 4 5 4 4 5 5 5 3 2 3 1 1 2 3 1 2 3 5 4 5 3 2 6 6 7 11 10 9 10 10 7 5 5 4 5 4 6 7 8 8 7 5 3 4 5 4 4 4 4 4 3 3 3 4 4 5 5 5 5 3 3 3 5 5 5 5 5 5 6 6 6 6 6 6
4 4 5 6 7 7 6 6 8 9 6 5 5 3 3 3 2 2 3 3 3 2 2 2 3 4 3 4 6 6 6 5 5 3 2 6 5 6 2 6 7 5 7 7 6 6 7 6 7 7 7 7 8 7 4 4 4 4 4 4 4 4 4 3 4 4 5 5 4 5 6 4 4 3 4 5 5 5 6 6 7 6 6 6 6 6 7
6 6 5 7 7 5 4 6 6 7 8 8 3 1 0 1 1 1 1 3 3 3 5 4 3 4 4 5 5 4 4 5 6 5 7 7 7 7 2 3 3 3 7 7 4 5 7 7 7 7 8 8 8 6 4 4 4 4 4 5 4 5 4 4 3 5 5 5 6 6 6 5 3 4 5 6 5 5 5 7 7 6 6 6 6 6 7
8 7 7 7 6 5 5 5 5 5 5 5 5 2 1 1 2 2 3 4 3 3 2 3 5 5 5 5 6 3 4 5 6 5 7 7 8 8 9 10 11 12 9 7 5 5 5 5 6 7 8 8 7 5 5 4 4 4 4 4 4 4 4 4 4 5 6 6 6 7 6 5 4 4 5 4 5 5 5 5 6 6 6 7 6 7 7
8 10 8 8 8 6 5 5 5 4 3 5 4 3 2 1 1 1 1 1 3 3 3 3 5 6 5 5 5 5 5 3 3 6 3 5 5 5 5 3 6 7 9 7 7 6 8 7 7 8 8 7 6 5 5 4 4 4 4 3 4 4 4 4 5 5 5 5 5 6 6 5 5 4 5 5 5 5 5 6 6 6 6 6 6 6 6
8 9 7 5 7 5 5 5 4 4 3 1 2 1 1 0 0 0 1 1 3 4 4 5 5 6 5 6 4 6 5 5 6 5 2 2 2 2 3 4 6 6 5 4 5 4 5 6 7 7 7 6 5 5 5 4 4 4 4 4 4 4 4 5 5 5 5 6 6 6 6 5 5 5 5 5 6 5 6 6 6 5 6 6 7 8 6
7 8 8 7 6 5 5 4 3 4 2 3 3 1 0 1 1 0 0 0 1 3 2 3 4 4 4 4 4 5 5 5 6 7 6 6 5 5 5 5 5 6 6 5 4 5 4 6 7 7 6 4 4 4 4 4 4 4 4 5 5 5 5 6 5 6 6 7 6 6 5 6 6 5 7 5 6 6 6 6 6 8 10 9 8 7 6
5 6 6 5 3 3 3 3 1 3 4 3 2 1 1 0 0 2 1 2 1 1 2 4 4 3 3 3 3 2 4 4 5 6 5 5 4 5 4 3 3 3 3 4 4 4 3 3 4 5 5 4 4 4 4 4 4 4 5 4 5 5 5 6 6 6 6 7 6 6 6 5 5 5 5 6 6 6 7 7 7 6 6 6 7 6 7
3 3 3 3 4 3 4 4 2 0 0 1 1 0 0 1 1 2 4 3 1 1 1 1 5 3 1 2 3 3 1 4 5 4 5 6 3 3 4 4 3 3 3 4 4 4 4 3 4 4 4 4 4 4 4 5 5 5 5 5 4 5 6 6 6 6 5 6 6 6 6 6 6 6 6 6 6 6 6 6 6 6 6 6 6 6 7
Wind_Direction
174 157 139 171 123 204 213 234 239 254 223 139 169 210 217 168 206 248 249 184 193 235 241 173 194 208 212 223 229 222 222 226 185 166 184 194 193 182 180 194 195 195 202 205 213 218 223 225 224 227 233 264 326 335 356 26 88 39 274 164 63 45 30 19 0 344 339 339 339 339 332 333 335 332 329 326 325 324 322 317 313 312 310 309 308 306 303
278 170 155 205 175 226 238 231 239 236 239 209 187 225 224 196 224 242 256 264 258 249 251 227 230 211 211 231 251 35 165 193 192 191 193 185 180 183 193 201 204 208 209 212 216 219 225 229 272 337 338 336 2 40 34 35 50 18 54 50 43 21 20 2 349 344 339 336 338 339 339 339 334 329 328 327 325 323 319 316 314 311 308 306 303 302 304
277 305 237 206 153 179 245 259 251 242 165 214 225 234 242 223 256 250 252 265 274 268 243 211 250 199 149 157 203 220 218 186 186 185 181 178 186 198 205 209 215 217 223 225 233 238 240 203 201 185 140 92 97 82 66 54 42 11 41 32 29 26 5 2 351 348 347 346 348 348 344 336 332 332 328 326 322 318 315 313 312 310 309 309 307 307 308
295 317 164 235 48 7 268 272 263 230 207 247 241 222 214 200 225 234 244 253 252 260 264 209 232 199 193 205 213 212 213 198 173 174 181 186 199 207 211 220 226 228 219 214 213 210 192 171 144 134 122 108 84 74 58 42 18 20 36 35 27 17 8 354 356 355 351 347 349 343 342 335 333 331 328 324 321 317 314 314 313 313 312 311 312 316 313
256 283 154 216 38 7 311 260 251 230 229 236 256 260 227 219 210 196 207 233 235 243 252 263 255 224 233 227 202 209 215 201 185 182 186 195 207 210 203 190 188 182 178 182 173 157 152 153 144 149 140 112 95 96 64 19 36 39 39 34 17 14 5 1 353 354 351 350 341 337 334 334 329 329 324 319 318 317 314 315 317 315 315 316 312 314 313
241 271 262 49 57 263 243 31 146 182 212 220 227 241 241 228 172 209 204 231 232 225 225 222 245 242 220 213 217 193 176 192 206 208 200 205 207 202 184 179 177 186 175 164 162 160 160 153 133 127 116 114 121 115 105 58 56 29 29 16 20 359 2 351 359 357 352 346 335 330 331 328 325 319 318 312 312 313 313 317 316 312 312 312 312 313 314
223 168 93 240 239 246 289 336 8 180 204 211 212 237 241 233 221 227 248 257 223 218 216 218 231 239 303 94 161 206 220 173 179 190 206 211 202 191 180 186 183 178 173 165 158 159 158 145 139 124 98 109 110 72 54 55 51 44 28 16 7 359 3 2 8 354 350 339 330 326 324 322 318 313 311 311 312 315 314 312 313 312 313 314 311 312 311
51 107 170 194 239 268 307 273 217 58 103 209 66 304 266 245 220 204 216 236 233 233 236 247 56 128 174 25 304 220 227 192 184 183 208 209 192 192 193 182 190 178 178 173 172 167 146 127 123 113 117 118 111 116 96 89 64 38 32 14 353 9 17 10 358 346 340 328 322 320 317 316 314 311 311 309 310 311 307 303 298 299 299 301 303 305 305
194 200 195 234 358 316 292 282 196 171 215 172 166 228 259 246 200 179 204 230 242 233 259 222 151 119 80 91 277 264 235 233 208 199 216 193 199 197 199 187 187 190 180 169 157 135 133 130 126 129 134 133 124 109 77 59 61 28 39 0 347 35 17 350 335 331 323 317 312 311 310 309 307 306 308 307 303 304 299 297 297 299 296 298 300 299 300
146 158 245 309 293 252 257 245 34 313 196 157 182 182 276 289 247 194 173 215 213 185 309 145 162 82 85 284 260 243 232 222 217 233 230 219 205 201 191 189 169 162 155 131 133 136 133 125 124 125 123 107 95 72 62 29 52 16 37 282 69 28 334 311 314 309 310 307 304 304 302 299 299 298 297 293 292 296 293 298 297 294 297 297 293 294 295
116 154 207 222 224 240 235 250 243 248 186 136 100 79 268 267 198 206 165 168 205 178 166 193 131 128 217 246 243 248 225 216 199 194 215 205 203 195 181 170 167 167 156 145 140 130 130 131 134 120 112 100 93 102 152 229 80 0 250 121 48 321 296 299 295 297 296 297 296 297 295 292 293 293 293 291 291 291 286 287 288 294 295 294 293 291 287
220 207 220 234 224 250 273 244 234 211 114 89 66 298 266 255 190 171 167 182 199 212 199 158 162 172 216 236 249 212 207 199 196 184 189 193 194 208 195 186 163 150 137 126 133 143 148 148 138 130 114 109 131 178 202 166 184 218 186 133 282 290 286 288 287 286 290 290 287 287 289 289 287 284 286 290 289 290 288 287 291 293 290 288 290 290 289
226 223 241 312 287 269 197 167 229 161 166 75 120 232 236 228 173 196 177 197 203 184 171 167 188 221 208 221 229 175 197 204 240 244 225 192 186 181 178 172 145 146 157 157 161 163 151 141 138 137 132 138 182 186 178 170 211 193 161 250 277 277 285 285 283 285 284 279 283 280 278 285 286 285 284 285 291 289 291 293 289 292 291 290 288 287 286
224 223 228 232 266 235 177 268 166 177 105 198 219 235 180 158 203 199 192 202 213 179 183 192 208 221 225 239 99 170 184 195 208 201 186 137 99 67 132 147 147 143 144 136 130 131 141 144 149 150 142 159 186 177 170 206 210 158 189 244 266 276 280 282 283 284 278 275 272 277 282 282 286 285 281 280 283 287 289 294 295 292 291 290 287 284 283
66 114 234 249 255 255 150 140 53 251 164 233 201 213 264 192 196 180 210 206 217 179 210 209 213 227 234 219 212 207 199 201 206 200 174 174 175 166 149 157 176 153 154 164 167 162 158 156 154 152 131 162 181 184 199 227 177 190 222 247 267 272 281 282 280 278 275 275 279 279 281 280 283 287 288 288 285 287 294 297 292 291 290 288 287 286 286
161 188 201 207 220 159 156 144 189 206 215 209 190 156 243 221 182 191 195 219 212 198 200 212 227 232 236 246 238 237 227 217 223 202 196 194 183 178 185 174 168 162 159 163 160 163 161 158 151 148 148 171 185 198 239 199 195 210 239 259 267 279 279 279 280 277 275 276 274 277 278 283 280 283 290 292 292 294 297 294 294 292 288 286 286 285 288
154 196 216 253 226 168 195 182 204 203 214 222 188 181 196 199 232 198 194 223 219 202 208 216 212 223 225 225 215 203 220 213 206 198 199 189 184 183 181 180 170 166 167 169 162 168 171 161 166 175 173 155 187 217 221 162 238 240 254 260 277 278 278 277 275 273 274 275 278 276 276 277 283 288 291 298 301 300 298 294 290 288 287 284 280 281 283
243 264 195 212 232 158 204 224 209 208 228 233 171 188 221 235 222 179 192 220 221 213 208 209 233 224 227 224 229 225 227 215 216 208 195 199 187 167 138 141 167 163 146 149 159 173 189 175 184 179 188 163 188 223 204 220 242 243 258 275 279 275 275 274 273 278 285 282 275 272 274 271 272 280 285 296 297 298 297 288 288 287 287 283 277 278 278
116 266 171 180 211 188 198 212 229 237 234 227 188 205 219 232 229 222 225 219 218 215 199 202 216 227 227 226 227 220 222 218 214 201 195 192 182 175 184 181 152 147 152 159 176 177 192 199 187 200 190 200 203 232 243 243 241 247 260 267 272 278 279 278 278 279 284 289 290 283 281 282 278 278 280 278 287 291 290 289 285 282 281 281 281 279 279
201 232 230 224 221 204 201 196 213 230 242 247 224 209 221 226 234 222 225 218 234 221 203 211 215 230 232 223 230 225 219 218 214 206 200 192 189 201 176 155 161 154 167 176 180 180 197 197 187 194 204 213 224 226 238 240 241 242 259 261 269 276 280 280 282 282 283 284 290 296 291 290 293 293 280 273 278 283 289 287 287 283 281 282 282 279 279
247 290 274 244 318 302 271 253 237 236 236 236 251 240 231 236 242 246 243 206 220 215 223 217 214 230 241 226 222 222 221 220 215 208 204 194 191 171 164 175 168 177 175 177 182 180 194 178 180 193 216 228 226 228 239 237 227 236 256 264 270 277 276 279 282 284 283 288 290 291 295 288 277 276 286 287 276 273 267 256 261 265 265 273 273 279 279
204 207 233 171 199 250 248 245 242 236 231 227 241 253 256 246 245 246 246 244 230 228 231 228 218 224 238 236 222 227 224 215 212 208 199 188 173 177 175 154 167 165 169 169 173 182 188 173 180 193 227 236 233 232 240 243 226 228 252 264 271 274 273 279 288 291 290 289 288 289 288 295 298 295 279 290 289 290 288 290 291 291 295 296 298 298 297
236 233 224 205 217 236 244 250 247 220 220 206 218 231 238 243 238 234 235 247 256 239 240 231 220 226 231 238 225 225 229 224 213 201 183 173 178 178 165 155 168 173 173 166 159 169 182 173 180 196 228 245 250 252 237 239 223 232 241 254 265 274 284 291 294 299 296 294 290 288 287 292 295 301 311 310 304 298 295 296 298 300 302 301 303 306 308
249 240 231 207 190 221 243 245 247 250 230 200 215 226 229 233 237 236 230 231 237 254 252 239 219 224 234 247 240 231 233 226 190 194 194 184 176 161 165 173 170 166 170 171 180 189 177 167 179 200 241 248 237 249 239 239 234 227 237 238 263 276 281 291 297 295 288 288 293 293 295 294 296 303 306 311 313 313 312 307 307 306 305 307 309 313 314
230 231 235 223 191 220 236 239 243 244 242 206 210 229 230 231 238 232 227 237 233 234 245 250 237 205 219 233 223 218 223 215 200 182 162 151 151 161 169 162 171 176 181 180 169 161 154 162 185 223 248 255 233 242 241 235 230 231 241 241 259 275 280 292 290 294 294 289 290 293 300 306 307 307 306 309 311 314 320 322 320 314 311 313 319 321 321
232 242 243 160 142 222 232 274 278 256 251 218 215 241 238 219 227 228 228 230 239 232 231 240 244 225 206 221 223 220 198 180 165 144 145 156 154 151 171 179 169 148 147 150 153 155 164 183 206 230 256 258 240 239 237 235 228 227 245 247 253 260 280 287 290 288 286 286 291 295 292 294 293 297 297 297 298 305 312 317 326 329 330 329 329 332 327
232 236 244 272 257 250 229 212 241 245 243 213 204 227 235 232 227 232 244 245 240 246 237 244 254 277 184 215 179 166 177 135 127 159 166 162 174 174 148 126 138 142 145 146 160 171 182 197 209 232 252 256 235 234 238 232 231 242 245 253 258 267 273 282 271 276 282 284 289 290 292 293 293 294 297 298 302 303 303 308 313 314 311 319 324 332 334
236 232 194 211 233 241 243 234 232 250 256 226 205 220 235 234 236 242 250 254 261 256 260 290 234 198 205 197 156 133 116 155 173 163 157 167 131 121 130 127 126 132 143 156 184 188 192 208 226 249 260 252 238 236 237 229 231 242 250 256 264 274 269 278 275 268 274 274 278 282 287 287 288 298 300 300 303 299 301 300 299 297 302 309 310 317 326
240 233 205 214 230 240 251 281 198 225 243 243 213 218 175 192 226 226 239 233 232 205 245 246 33 202 186 177 165 169 171 163 167 177 169 141 138 129 123 119 114 118 129 184 225 213 217 223 230 245 260 246 230 236 236 226 231 235 252 254 261 262 268 268 265 267 268 268 264 273 290 301 304 300 297 296 294 295 300 300 299 297 303 307 313 317 326
242 195 178 226 237 247 256 258 249 241 237 236 211 222 201 203 227 238 231 233 205 215 223 149 139 154 118 157 187 179 181 190 176 136 132 138 129 123 120 117 96 96 203 246 242 224 218 222 221 238 256 250 229 238 235 229 234 230 241 250 248 256 256 259 260 271 271 270 280 298 297 292 290 292 297 296 297 302 303 302 306 311 312 314 318 319 323
212 159 199 213 222 226 223 238 245 246 241 239 222 225 209 191 224 240 239 226 204 218 187 168 175 158 175 183 168 132 101 105 115 123 119 120 121 121 126 139 167 218 220 230 219 200 204 221 228 244 254 250 246 241 237 235 236 245 250 249 245 262 280 293 290 280 273 285 293 297 297 293 288 297 300 301 304 305 303 302 305 309 308 310 312 316 317
233 200 204 215 216 216 225 233 237 241 242 223 193 220 214 202 216 228 233 219 213 195 168 166 182 199 190 142 119 114 107 103 104 110 113 112 124 151 157 180 213 240 244 243 238 225 228 236 250 251 248 246 244 245 233 234 238 244 248 251 257 259 268 285 283 286 284 290 293 294 294 302 304 303 297 296 300 305 309 311 313 314 313 314 316 314 318
226 243 246 235 230 227 234 236 220 240 241 225 220 225 224 218 225 230 225 193 159 177 185 202 195 145 121 120 116 113 106 102 96 104 127 171 172 178 191 198 213 226 238 242 237 230 221 234 250 258 246 241 244 241 230 233 234 234 241 241 247 258 268 275 283 289 293 281 281 285 290 298 298 300 293 297 303 307 308 307 310 310 310 309 306 310 310
217 223 232 234 202 206 219 232 218 227 242 235 230 224 220 214 212 213 194 171 173 180 191 174 127 126 127 128 127 123 125 120 151 197 201 197 200 203 198 212 217 227 243 252 251 245 242 240 250 257 255 248 247 239 237 232 229 223 236 236 247 252 256 255 270 274 273 279 279 293 294 294 296 296 297 302 307 307 308 309 307 307 308 308 307 307 316
221 231 234 241 227 215 216 220 218 214 223 235 235 221 217 201 187 188 165 161 174 163 123 116 127 129 129 128 132 143 155 179 178 161 171 178 179 179 181 222 290 297 278 255 246 250 239 242 239 246 255 253 246 241 236 232 220 228 235 235 241 246 249 262 263 262 266 275 283 287 297 294 292 295 300 303 303 302 303 301 302 306 306 310 312 317 319
204 227 238 243 240 225 221 224 224 217 210 218 224 208 190 176 150 143 150 146 116 121 125 126 129 127 130 141 150 160 178 186 175 168 169 181 190 172 186 244 273 287 292 293 264 241 242 235 230 225 225 231 232 235 230 224 232 225 237 236 240 250 257 256 260 261 263 264 273 281 280 295 305 301 294 292 296 299 297 297 300 302 303 304 308 317 317
210 218 228 219 192 174 190 145 40 153 166 157 131 124 130 134 137 122 109 117 121 119 129 128 125 138 158 160 154 157 161 168 166 177 180 175 160 172 187 241 252 262 278 289 280 251 240 222 212 215 214 222 228 236 241 245 238 233 238 238 240 245 251 258 257 258 265 268 275 280 292 300 293 281 285 293 298 296 294 300 306 307 304 304 312 313 317
135 291 221 178 160 137 102 48 22 122 111 83 56 98 137 134 129 125 118 114 115 120 116 119 133 136 130 124 133 158 172 165 168 175 181 195 180 189 232 219 248 225 240 237 239 296 290 231 212 221 228 233 232 229 237 239 246 238 223 227 231 236 249 248 261 268 277 281 283 293 291 294 293 293 296 302 294 291 301 305 307 307 307 309 308 309 312
121 67 71 91 99 104 107 68 42 39 99 127 115 91 92 114 115 112 108 103 108 111 107 113 123 120 135 150 173 193 214 206 194 198 206 230 208 194 236 231 239 231 238 238 231 253 244 247 253 257 254 240 234 230 229 241 247 233 220 219 228 232 237 245 255 265 278 288 302 293 298 296 285 287 298 299 293 298 303 306 306 305 306 306 312 315 317
147 145 144 135 119 119 103 81 60 68 57 94 127 132 139 120 117 110 104 106 103 101 115 127 131 141 153 154 189 237 251 217 210 197 228 234 263 274 283 266 253 255 251 253 255 254 250 249 246 246 241 237 221 222 228 229 237 221 213 219 226 229 234 240 244 257 267 282 289 300 302 290 286 292 300 298 300 303 310 308 306 303 304 305 307 310 315
138 131 132 119 113 106 107 107 91 63 69 75 82 102 108 122 126 118 130 136 114 87 102 110 120 127 158 182 201 234 262 253 200 223 209 137 269 265 270 275 254 197 237 239 235 241 246 239 220 228 236 227 222 220 220 233 229 211 213 219 223 224 229 234 233 247 264 274 278 285 284 286 292 302 296 299 298 304 303 299 297 296 295 301 307 309 309
135 126 119 115 115 114 106 106 108 93 69 68 79 87 89 93 102 126 125 116 105 106 111 125 145 169 190 191 191 248 289 279 275 251 198 207 233 245 263 269 253 260 250 245 246 241 232 233 220 216 222 222 221 232 228 226 213 206 214 221 226 229 230 233 237 251 249 250 257 265 265 267 276 284 293 294 302 304 304 303 300 298 298 299 304 306 306
144 141 135 132 130 128 130 125 116 119 112 94 92 98 99 92 95 102 107 116 128 134 140 140 172 262 202 182 187 249 266 276 275 273 275 253 235 229 236 266 286 269 268 286 276 244 230 222 227 235 229 222 223 227 240 234 209 213 217 222 224 227 225 231 241 246 248 251 256 247 246 256 255 267 287 294 291 294 296 294 295 298 301 301 302 305 305
141 134 135 133 132 132 125 119 120 117 119 124 117 116 117 111 126 133 138 142 147 153 155 191 205 233 236 212 191 243 260 252 256 244 234 291 291 250 225 241 256 266 274 263 266 245 243 236 237 232 236 236 239 238 230 220 223 219 222 222 224 221 224 233 241 243 245 251 248 250 250 256 259 260 265 282 291 294 287 285 283 285 288 294 295 293 294
105 110 116 116 119 119 118 124 136 137 121 104 101 99 100 115 112 127 139 149 158 181 177 198 207 219 212 198 207 220 228 223 220 194 239 280 295 293 249 205 231 249 255 253 243 243 250 251 242 236 237 238 239 235 226 222 226 226 225 222 221 224 229 234 236 238 244 244 249 252 250 249 252 261 261 264 268 278 284 289 288 287 292 297 300 301 300
87 78 87 95 90 82 79 84 77 85 88 96 92 74 88 166 181 192 173 175 190 207 204 207 210 224 212 215 231 241 255 257 247 225 224 218 236 248 245 241 215 238 267 260 238 237 240 240 235 237 240 242 237 234 223 224 224 229 229 226 227 228 237 235 242 247 245 244 250 248 248 250 252 254 249 249 254 265 273 279 281 285 278 279 280 281 286
106 97 88 91 86 78 81 83 88 94 91 98 109 127 154 178 187 197 217 211 209 226 227 229 243 245 232 211 206 223 258 280 284 229 221 240 245 258 268 273 276 274 270 255 234 237 234 238 240 242 244 243 240 226 221 223 224 228 228 225 226 232 236 238 243 243 244 248 250 246 247 245 249 254 262 267 268 268 267 273 278 279 282 284 284 287 289
109 102 99 102 104 100 94 91 97 107 123 154 160 147 162 135 193 263 273 246 247 263 263 252 250 256 246 236 232 223 211 174 311 299 200 213 225 227 252 256 254 261 265 255 250 248 242 236 234 239 241 240 236 227 221 223 226 227 227 230 233 231 235 243 248 241 248 248 248 251 255 256 253 250 251 252 260 257 259 263 269 279 279 278 279 282 283
81 96 94 90 91 98 110 107 113 134 171 194 139 167 194 150 247 312 274 248 272 288 271 258 252 258 254 231 218 219 216 208 185 234 249 182 210 239 245 247 262 259 251 243 247 250 246 246 248 247 246 243 234 229 223 226 232 232 235 239 238 237 236 238 240 242 243 249 247 245 246 251 255 250 257 259 260 263 264 265 266 262 270 274 278 278 279
108 106 108 100 120 131 138 126 154 185 179 146 181 211 168 96 68 319 317 202 223 245 272 285 273 266 262 259 234 220 197 198 229 244 261 273 275 271 265 263 259 265 264 254 254 254 238 244 246 244 240 237 232 228 225 227 224 234 237 239 238 246 238 238 245 242 238 244 245 245 247 249 251 251 253 254 260 262 262 261 266 267 270 272 273 276 277
124 89 119 132 146 154 183 177 177 166 168 184 176 176 138 107 180 295 311 288 296 307 313 312 304 293 296 299 286 240 202 209 216 226 234 247 246 253 254 257 252 246 249 252 248 249 244 233 233 233 233 233 232 234 227 232 233 237 237 239 241 244 243 245 245 251 250 246 247 248 250 250 248 252 253 255 260 266 266 268 268 270 270 267 268 269 272
96 94 103 110 130 143 176 242 269 211 175 139 118 97 122 169 226 296 302 292 240 239 254 346 333 300 266 283 309 300 233 202 216 227 237 237 244 250 255 259 260 258 260 255 257 247 241 240 236 242 244 246 246 243 246 242 245 246 242 243 241 241 243 246 244 248 252 249 246 252 250 249 245 250 258 256 256 257 263 261 263 264 267 268 268 270 274